Regional Weather Roundup
Issued by NWS

Home | Current Version | Previous Version | Graphics & Text | Print | Product List | Glossary On
Versions: 1 2 3 4 5 6 7 8 9 10 11 12 13 14 15 16 17 18 19 20 21 22 23 24 25 26 27 28 29 30 31 32 33 34 35 36 37 38 39 40 41 42 43 44 45 46 47 48 49 50
000
ASUS44 KMEG 041200
RWRTN
TENNESSEE HOURLY STATE WEATHER ROUNDUP
NATIONAL WEATHER SERVICE MEMPHIS TN
700 AM CDT SAT JUL 04 2015

TNZ002-004-019-021-049-052-054-088>092-041300-
WEST TENNESSEE

CITY           SKY/WX    TMP DP  RH WIND       PRES   REMARKS
MEMPHIS INTL   CLOUDY    73  70  90 SW6       29.97R
NWS MEMPHIS      N/A     72 N/A N/A MISG        N/A
JACKSON        CLOUDY    72  70  93 S5        29.98R
DYERSBURG        N/A    N/A N/A N/A MISG        N/A
PARIS          CLOUDY    70  68  94 CALM      29.98R
LEXINGTON      CLOUDY    70  70 100 SW6       29.98R
$$

TNZ008-025-027-028-033-062-065-066-041300-
NORTH MIDDLE TENNESSEE

CITY           SKY/WX    TMP DP  RH WIND       PRES   REMARKS
NASHVILLE      CLOUDY    72  71  97 CALM      29.99R
CLARKSVILLE    CLOUDY    71  70  96 SW3       29.97R
SMYRNA         CLOUDY    72  70  94 SW3       29.99R
COOKEVILLE     CLOUDY    70  70 100 SW6       29.99R
CROSSVILLE     CLOUDY    68  65  90 VRB6      30.04R FOG
$$

TNZ061-075-076-078-094-096-097-041300-
SOUTH MIDDLE TENNESSEE

CITY           SKY/WX    TMP DP  RH WIND       PRES   REMARKS
FAYETTEVILLE   CLOUDY    68  66  94 SW6       30.02R
TULLAHOMA      CLOUDY    66  66 100 SW7       30.02R
WINCHESTER     CLOUDY    70  66  88 SW7       30.02R
COLUMBIA       CLOUDY    70  70 100 S8        29.98R
SHELBYVILLE    CLOUDY    72  70  94 SW7         N/A
$$

TNZ017-018-042-046-047-041300-
NORTHEAST TENNESSEE

CITY           SKY/WX    TMP DP  RH WIND       PRES   REMARKS
TRI CITIES     CLOUDY    69  66  90 W6        30.01R
ELIZABETHTON   CLOUDY    66  63  88 SW3       30.02R
$$

TNZ012-013-036-069-073-074-041300-
CENTRAL EAST TENNESSEE

CITY           SKY/WX    TMP DP  RH WIND       PRES   REMARKS
KNOXVILLE      CLOUDY    70  67  90 SW9       30.00R
OAK RIDGE      LGT RAIN  70  67  90 CALM      30.02R FOG
GATLINBURG     CLOUDY    68  64  88 CALM      30.00R
$$

TNZ083-085-099-041300-
SOUTHEAST TENNESSEE

CITY           SKY/WX    TMP DP  RH WIND       PRES   REMARKS
CHATTANOOGA    CLOUDY    69  68  96 S3        30.02R FOG
$$

SKY/WX REPORTED AS FAIR MEANS FEW OR NO CLOUDS BELOW
12 THOUSAND FEET.



USA.gov is the U.S. government's official web portal to all federal, state and local government web resources and services.